Sacramento, CA

12:28 AM PDT on October 01, 2016 (GMT -0700)
Sacramento International

Weather History for KSMF - January, 2013

Change the Weather History Date:

Thursday, January 31, 2013

  Actual Average Record
Temperature  
Mean Temperature 49 °F -  
Max Temperature 63 °F 55 °F 71 °F (2015)
Min Temperature 35 °F 38 °F 27 °F (1946)
Degree Days  
Heating Degree Days 16    
Moisture  
Dew Point 41 °F    
Average Humidity 88    
Maximum Humidity 100    
Minimum Humidity 52    
Precipitation  
Precipitation 0.00 in - - ()
Sea Level Pressure  
Sea Level Pressure 30.26 in    
Wind  
Wind Speed 1 mph (NNW)    
Max Wind Speed 7 mph    
Max Gust Speed -    
Visibility 6 miles    
Events Fog    
Averages and records for this station are not official NWS values.
T = Trace of Precipitation, MM = Missing Value Source: NWS Daily Summary

Daily Weather History Graph

Daily Weather History Graph

Search for Another Location

Airport or City:

Trip Planner

Search our weather history database for the weather conditions in past years. The results will help you decide how hot, cold, wet, or windy it might be!

Date:

Astronomy

Jan. 31, 2013 Rise Set
Actual Time 7:12 AM PST 5:27 PM PST
Civil Twilight 6:44 AM PST 5:55 PM PST
Nautical Twilight 6:12 AM PST 6:27 PM PST
Astronomical Twilight 5:41 AM PST 6:58 PM PST
Moon 10:31 PM PST (1/31) 9:18 AM PST (1/31)
Length of Visible Light 11h 10m
Length of Day
10h 14m
Waning Gibbous, 79% of the Moon is Illuminated
Jan 31
Waning Gibbous
Feb 3
Last Quarter
Feb 9
New
Feb 17
First Quarter
Feb 25
Full

Hourly Weather History & Observations

Time (PST) Temp. Windchill Dew Point Humidity Pressure Visibility Wind Dir Wind Speed Gust Speed Precip Events Conditions
12:53 AM 41.0 °F 39.0 °F 41.0 °F 100% 30.30 in 5.0 mi NE 3.5 mph - N/A Fog Clear
1:53 AM 39.0 °F - 39.0 °F 100% 30.30 in 4.0 mi Calm Calm - N/A Fog Clear
2:53 AM 37.4 °F - 37.4 °F 100% 30.29 in 4.0 mi Calm Calm - N/A Fog Clear
3:00 AM 37.4 °F - 37.4 °F 100% 30.29 in 0.2 mi Calm Calm - N/A Fog Mist
3:17 AM 37.4 °F - 37.4 °F 100% 30.28 in 4.0 mi Calm Calm - N/A Fog Partly Cloudy
3:53 AM 37.0 °F 34.5 °F 37.0 °F 100% 30.28 in 1.0 mi SW 3.5 mph - N/A   Scattered Clouds
4:53 AM 36.0 °F 33.3 °F 34.0 °F 93% 30.28 in 3.0 mi NW 3.5 mph - N/A Fog Partly Cloudy
5:17 AM 35.6 °F - 35.6 °F 100% 30.29 in 0.8 mi Calm Calm - N/A   Scattered Clouds
5:53 AM 35.1 °F - 35.1 °F 100% 30.29 in 1.0 mi Calm Calm - N/A Fog Partly Cloudy
6:53 AM 36.0 °F - 35.1 °F 97% 30.30 in 0.5 mi Calm Calm - N/A Fog Fog
6:59 AM 35.6 °F - 35.6 °F 100% 30.30 in 0.5 mi Calm Calm - N/A Fog Fog
7:53 AM 35.1 °F - 34.0 °F 96% 30.31 in 0.1 mi Calm Calm - N/A Fog Fog
8:40 AM 39.2 °F - 39.2 °F 100% 30.32 in 0.5 mi Calm Calm - N/A Fog Fog
8:53 AM 42.1 °F - 41.0 °F 96% 30.32 in 1.0 mi Calm Calm - N/A   Clear
9:03 AM 42.8 °F - 42.8 °F 100% 30.32 in 4.0 mi Calm Calm - N/A   Clear
9:53 AM 50.0 °F - 46.9 °F 89% 30.32 in 8.0 mi Calm Calm - N/A   Clear
10:53 AM 54.0 °F - 46.9 °F 77% 30.31 in 9.0 mi Calm Calm - N/A   Clear
11:53 AM 55.9 °F - 46.0 °F 69% 30.28 in 9.0 mi Calm Calm - N/A   Clear
12:53 PM 61.0 °F - 46.0 °F 58% 30.25 in 9.0 mi Calm Calm - N/A   Clear
1:53 PM 62.1 °F - 46.0 °F 56% 30.23 in 10.0 mi Calm Calm - N/A   Clear
2:53 PM 63.0 °F - 46.0 °F 54% 30.22 in 10.0 mi North 3.5 mph - N/A   Clear
3:53 PM 63.0 °F - 45.0 °F 52% 30.21 in 10.0 mi Calm Calm - N/A   Clear
4:53 PM 61.0 °F - 48.0 °F 62% 30.20 in 10.0 mi ENE 3.5 mph - N/A   Clear
5:53 PM 53.1 °F - 46.9 °F 80% 30.21 in 10.0 mi NE 3.5 mph - N/A   Clear
6:53 PM 48.0 °F - 46.0 °F 93% 30.20 in 10.0 mi Calm Calm - N/A   Clear
7:53 PM 50.0 °F - 46.9 °F 89% 30.20 in 10.0 mi Calm Calm - N/A   Clear
8:53 PM 44.1 °F 42.5 °F 43.0 °F 96% 30.21 in 10.0 mi NNW 3.5 mph - N/A   Clear
9:53 PM 44.1 °F 40.1 °F 42.1 °F 93% 30.21 in 10.0 mi NW 6.9 mph - N/A   Clear
10:53 PM 43.0 °F 40.3 °F 41.0 °F 93% 30.21 in 10.0 mi NW 4.6 mph - N/A   Clear
11:53 PM 42.1 °F 38.4 °F 39.9 °F 92% 30.21 in 10.0 mi NW 5.8 mph - N/A   Clear